Home > Weather > Toulon > Past weeks

Flag for France Past Weather in Toulon, Provence-Alpes-Côte d'Azur, France — Yesterday and Last 2 Weeks

Now
70 °F

Sunny.


Feels Like: 70 °F
Forecast: 57 / 77 °F
Wind: 9 mph from East

Location: Hyeres Airport

Current Time: May 27, 2016 at 8:18:45 PM

Latest Report: May 27, 2016 at 7:30 PM


Visibility: 10 mi

Pressure: 29.95 "Hg

Humidity: 50%

Dew Point: 50 °F

Location of ToulonLocation

Past Weather in Toulon — Graph

°F

Toulon Temperature Yesterday

Maximum temperature yesterday: 70 °F (at 10:00 AM)
Minimum temperature yesterday: 52 °F (at 1:30 AM)
Average temperature yesterday: 63 °F

High & Low Weather Summary for the Past Weeks

 TemperatureHumidityPressure
High77 °F (May 15, 5:30 PM)100% (May 22, 2:30 AM)30.12 "Hg (May 22, 2:30 AM)
Low46 °F (May 21, 6:00 AM)24% (May 15, 6:30 PM)29.53 "Hg (May 14, 2:30 AM)
Average64 °F58%29.91 "Hg
* Reported May 12 7:00 PM — May 27 7:00 PM, Toulon, Weather by CustomWeather, © 2016

Note: Actual official high and low records may vary slightly from our data, if they occured in-between our weather recording intervals... More about our weather records

Advertising

Toulon Weather History for the Previous 24 Hours

Scroll right to see more
 ConditionsComfort  
Time TempWeatherWind HumidityBarometerVisibility
7:00 PM
Fri, May 27
72 °FSunny.10 mph47%29.95 "Hg10 mi
6:30 PM72 °FSunny.13 mph47%29.95 "Hg10 mi
6:00 PM70 °FSunny.15 mph50%29.95 "Hg10 mi
5:30 PM70 °FClear.15 mph57%29.95 "Hg5 mi
5:00 PM70 °FClear.15 mph57%29.95 "Hg5 mi
4:30 PM72 °FClear.16 mph53%29.95 "Hg5 mi
4:00 PM72 °FClear.17 mph53%29.95 "Hg5 mi
3:30 PM72 °FClear.18 mph53%29.95 "Hg5 mi
3:00 PM73 °FClear.18 mph47%29.95 "Hg6 mi
2:30 PM73 °FSunny.17 mph47%29.95 "Hg10 mi
2:00 PM73 °FSunny.17 mph47%29.95 "Hg10 mi
1:30 PM73 °FSunny.16 mph47%29.98 "Hg10 mi
1:00 PM72 °FSunny.17 mph47%29.98 "Hg10 mi
12:30 PM72 °FSunny.16 mph57%29.98 "Hg10 mi
12:00 PM73 °FSunny.14 mph50%29.98 "Hg10 mi
11:30 AM72 °FSunny.15 mph57%29.95 "Hg10 mi
11:00 AM73 °FSunny.17 mph50%29.95 "Hg10 mi
10:30 AM73 °FSunny.12 mph44%29.98 "Hg10 mi
10:00 AM73 °FSunny.10 mph44%29.95 "Hg10 mi
9:30 AM72 °FSunny.9 mph50%29.95 "Hg10 mi
9:00 AM72 °FSunny.14 mph47%29.95 "Hg10 mi
8:30 AM70 °FSunny.10 mph46%29.95 "Hg10 mi
8:00 AM70 °FSunny.12 mph46%29.95 "Hg10 mi
7:30 AM68 °FSunny.13 mph49%29.92 "Hg10 mi
7:00 AM66 °FClear.8 mph49%29.92 "Hg10 mi
6:30 AM64 °FClear.9 mph49%29.92 "Hg10 mi
6:00 AM63 °FClear.6 mph52%29.92 "Hg10 mi
5:30 AM63 °FClear.6 mph52%29.92 "Hg10 mi
5:00 AM61 °FPassing clouds.5 mph59%29.92 "HgN/A
4:30 AM63 °FPassing clouds.5 mph52%29.92 "HgN/A
4:00 AM64 °FClear.9 mph49%29.92 "Hg10 mi
3:30 AM66 °FClear.8 mph49%29.95 "Hg10 mi
3:00 AM64 °FPassing clouds.8 mph52%29.95 "HgN/A
2:30 AM64 °FClear.8 mph49%29.95 "Hg10 mi
2:00 AM64 °FClear.8 mph49%29.95 "Hg10 mi
1:30 AM63 °FClear.8 mph52%29.95 "Hg10 mi
1:00 AM59 °FClear.6 mph68%29.95 "Hg10 mi
12:30 AM59 °FClear.5 mph68%29.95 "Hg10 mi
12:00 AM59 °FClear.3 mph68%29.92 "Hg10 mi
11:30 PM
Thu, May 26
63 °FPassing clouds.3 mph56%29.92 "HgN/A
11:00 PM63 °FClear.3 mph52%29.95 "Hg10 mi
10:30 PM64 °FClear.2 mph52%29.95 "Hg10 mi
10:00 PM64 °FSunny.7 mph52%29.92 "Hg10 mi
9:30 PM64 °FSunny.6 mph52%29.92 "Hg10 mi
9:00 PM66 °FSunny.7 mph49%29.92 "Hg10 mi
8:30 PM68 °FSunny.8 mph43%29.92 "Hg10 mi
8:00 PM70 °FSunny.12 mph43%29.92 "Hg10 mi
Weather by CustomWeather, © 2016

See weather overviewHow to use our weather pages